www.pogodaiklimat.ru

Погода и климат >> Архив погоды >> Австралия >> Новый Южный Уэльс >> Тамворт


ПОГОДА в Тамворте

  • Прогноз погоды в Тамворте
  • Монитор погоды в Тамворте

АРХИВ ПОГОДЫ в Тамворте

Время (UTC), дата Ветер
(напр.,м/с)
 
Видим.   Явления Облачность Т
(С)
Тd
(С)
f
(%)
Тe
(С)
Тes
(С)
Комфортность P
(гПа)
Po
(гПа)
Тmin
(С)
Tmax
(С)
R
(мм)
R24
(мм)
S
(см)
04 17.07 СЗ 3 н/о н/о +13.3 +5.0 57 +12 +12 1019.0 971.8
05 17.07 С 3 н/о н/о +13.7 +4.8 55 +13 +13 1018.4 971.2
06 17.07 СЗ 4 н/о н/о +13.9 +4.8 54 +13 +13 1018.5 971.3
07 17.07 С 3 н/о н/о +12.0 +5.2 63 +11 +11 1018.4 971.2
08 17.07 С 3 н/о н/о +9.7 +5.1 73 +8 +8 1018.6 971.4
09 17.07 С 3 н/о н/о +8.3 +4.3 76 +6 +6 1018.8 971.6
10 17.07 штиль 0 н/о н/о +6.0 +3.3 83 +5 +5 1019.4 972.1
11 17.07 З 2 н/о н/о +5.4 +3.4 87 +3 +3 1019.4 972.1
12 17.07 СВ 1 н/о н/о +4.7 +2.6 86 +3 +3 1019.7 972.4
13 17.07 СВ 1 н/о н/о +4.4 +3.5 94 +4 +4 1019.8 972.5
14 17.07 З 3 н/о н/о +2.7 +1.8 94 -2 -2 1019.8 972.5 +14.5
15 17.07 СВ 3 н/о н/о +3.9 +3.0 94 -0 -0 1020.0 972.7
16 17.07 В 1 н/о н/о +3.9 +3.0 94 +2 +2 1019.9 972.6
17 17.07 штиль 0 н/о 10/10 1000 м
[]
+3.9 +3.3 96 +3 +3 1019.4 972.1
18 17.07 С 2 н/о н/о +4.7 +3.7 93 +2 +2 1018.8 971.6
19 17.07 З 3 н/о н/о +4.1 +3.1 93 +1 +1 1018.6 971.4
20 17.07 В 2 н/о н/о +2.9 +1.9 93 0 0 1019.4 972.1
21 17.07 СЗ 1 н/о н/о +2.6 +2.0 96 +2 +2 1019.5 972.2
22 17.07 ЮВ 2 н/о н/о +5.1 +4.1 93 +2 +2 1020.5 973.2
23 17.07 С 1 н/о н/о +8.9 +4.3 73 +9 +9 1020.9 973.6
00 18.07 СЗ 2 н/о н/о +11.0 +4.5 64 +10 +10 1020.9 973.6
01 18.07 СЗ 2 н/о н/о +12.0 +3.3 55 +11 +11 1020.5 973.2
02 18.07 З 2 н/о 1/1 1000 м
[]
+13.3 +3.7 52 +13 +20 1019.6 972.3 +1.7
03 18.07 СЗ 3 н/о н/о +14.4 +5.0 53 +14 +14 1018.6 971.4
04 18.07 СЗ 4 н/о н/о +14.4 +4.1 50 +13 +13 1018.2 971.0
05 18.07 З 4 н/о н/о +15.0 +2.9 44 +14 +14 1018.2 971.0
06 18.07 СЗ 5 н/о н/о +15.2 +4.0 47 +14 +14 1018.4 971.2
07 18.07 С 2 н/о н/о +12.9 +4.1 55 +12 +12 1018.9 971.7
08 18.07 С 2 н/о н/о +10.9 +4.6 65 +10 +10 1019.2 972.0
09 18.07 штиль 0 н/о н/о +9.3 +4.1 70 +9 +9 1020.0 972.7
10 18.07 С 3 н/о н/о +6.1 +2.7 79 +3 +3 1020.4 973.1
11 18.07 СВ 2 н/о н/о +6.2 +3.5 83 +4 +4 1020.8 973.5
12 18.07 С 2 н/о н/о +5.8 +3.5 85 +4 +4 1021.2 973.9
13 18.07 штиль 0 н/о н/о +4.3 +3.0 91 +3 +3 1021.2 973.9
14 18.07 штиль 0 н/о н/о +3.5 +2.5 93 +2 +2 1021.1 973.8 +15.8
15 18.07 В 2 н/о н/о +2.2 +1.8 97 -1 -1 1021.1 973.8
16 18.07 ЮВ 1 н/о н/о -0.5 -1.6 92 -3 -3 1021.1 973.8
17 18.07 штиль 0 7000 м н/о -0.1 -0.1 100 -2 -2 1021.3 974.0
18 18.07 штиль 0 н/о н/о -0.4 -0.4 100 -2 -2 1021.3 974.0
19 18.07 штиль 0 н/о н/о -2.0 -2.3 98 -3 -3 1022.0 974.6
20 18.07 ЮВ 2 н/о н/о -1.5 -1.6 99 -6 -6 1022.6 975.2
21 18.07 Ю 2 н/о н/о -2.9 -3.0 99 -7 -7 1022.8 975.4
22 18.07 штиль 0 н/о н/о +1.8 +1.8 100 0 0 1023.2 975.8
23 18.07 ЮВ 4 н/о н/о +5.1 +3.3 88 +1 +1 1023.5 976.1
00 19.07 ЮВ 4 н/о н/о +8.2 +3.9 74 +5 +5 1024.0 976.5
01 19.07 С 1 н/о н/о +10.9 +4.1 63 +11 +11 1023.1 975.7
02 19.07 СЗ 3 н/о н/о +11.8 +3.3 56 +11 +11 1022.3 974.9 -4.0
03 19.07 СЗ 2 н/о н/о +12.9 +2.5 49 +12 +12 1021.3 974.0
04 19.07 Ю 1 н/о н/о +14.6 +2.8 45 +15 +15 1020.9 973.6
05 19.07 С 2 н/о н/о +14.4 +2.0 43 +14 +14 1021.0 973.7
06 19.07 СЗ 2 н/о н/о +14.5 +2.7 45 +14 +14 1021.2 973.9
07 19.07 С 2 н/о н/о +12.3 +3.0 53 +12 +12 1021.4 974.1
08 19.07 СЗ 1 н/о н/о +10.2 +3.0 61 +10 +10 1022.3 974.9
09 19.07 штиль 0 н/о н/о +8.5 +2.7 67 +8 +8 1022.7 975.3
10 19.07 ЮВ 1 н/о н/о +6.2 +2.7 78 +6 +6 1023.2 975.8
11 19.07 ЮВ 3 н/о н/о +4.3 +0.8 78 +1 +1 1023.5 976.1
12 19.07 ЮВ 2 н/о н/о +5.1 +2.6 84 +2 +2 1024.0 976.5
13 19.07 ЮВ 2 н/о н/о +3.8 +1.8 87 +1 +1 1024.2 976.7
14 19.07 ЮВ 2 н/о н/о +2.3 +0.7 89 -1 -1 1024.1 976.6 +15.2
15 19.07 Ю 4 н/о н/о +2.5 +1.0 90 -2 -2 1023.9 976.4
16 19.07 ЮВ 1 н/о н/о +1.4 -0.2 89 -1 -1 1023.9 976.4
17 19.07 ЮВ 4 н/о н/о +1.5 +0.3 92 -4 -4 1023.2 975.8
18 19.07 Ю 1 н/о н/о +0.6 -0.8 90 -1 -1 1023.0 975.6
19 19.07 Ю 2 н/о н/о -0.1 -1.4 91 -3 -3 1023.3 975.9
20 19.07 ЮВ 2 н/о н/о -0.3 -1.4 92 -4 -4 1024.1 976.6
21 19.07 Ю 2 н/о н/о -2.5 -4.1 89 -6 -6 1024.7 977.2
22 19.07 штиль 0 н/о н/о +1.1 -0.2 91 -0 -0 1025.1 977.6
23 19.07 Ю 2 н/о н/о +6.1 +1.6 73 +4 +4 1025.4 977.9
00 20.07 Ю 2 н/о н/о +10.0 +2.6 60 +9 +9 1025.3 977.8
01 20.07 ЮВ 1 н/о н/о +14.8 +3.6 47 +15 +15 1024.7 977.2
02 20.07 СЗ 1 н/о н/о +16.3 +0.4 34 +17 +17 1023.5 976.1 -2.9
03 20.07 СЗ 5 н/о н/о +17.4 +0.1 31 +17 +17 1022.6 975.2
04 20.07 СЗ 4 н/о н/о +18.5 -0.3 28 +19 +19 1021.9 974.5
05 20.07 СЗ 3 н/о н/о +19.1 -0.3 27 +20 +20 1021.4 974.1
06 20.07 ЮЗ 4 н/о н/о +18.5 -0.3 28 +19 +19 1021.2 973.9
07 20.07 ЮЗ 2 н/о н/о +16.2 -0.1 33 +17 +17 1021.4 974.1
08 20.07 З 2 н/о н/о +10.9 0.0 47 +10 +10 1021.9 974.5
09 20.07 СЗ 2 н/о н/о +8.1 -0.1 56 +7 +7 1022.2 974.8
10 20.07 штиль 0 н/о н/о +6.9 -0.8 58 +6 +6 1022.6 975.2
11 20.07 штиль 0 н/о н/о +8.3 +0.3 57 +8 +8 1022.8 975.4
12 20.07 ЮВ 1 н/о н/о +3.3 -1.1 73 +3 +3 1022.5 975.1
13 20.07 ЮЗ 2 н/о н/о +3.1 -0.4 78 +1 +1 1022.5 975.1
14 20.07 ЮВ 3 н/о н/о +3.6 -0.8 73 0 0 1022.2 974.8 +19.4
15 20.07 ЮВ 3 н/о н/о +3.9 -0.1 75 0 0 1022.0 974.6
16 20.07 Ю 3 н/о н/о +3.8 -0.4 74 +1 +1 1022.0 974.6
17 20.07 ЮВ 3 н/о н/о +3.0 -1.4 73 -0 -0 1021.6 974.2
18 20.07 ЮЗ 1 н/о н/о +0.1 -2.8 81 -0 -0 1021.7 974.3
19 20.07 штиль 0 н/о н/о +1.3 -1.6 81 0 0 1021.4 974.1
20 20.07 ЮВ 3 н/о н/о +0.6 -1.8 84 -4 -4 1022.0 974.6
21 20.07 Ю 3 н/о н/о +2.3 -0.8 80 -1 -1 1022.4 975.0
22 20.07 ЮВ 4 н/о н/о +6.0 +0.8 69 +3 +3 1022.7 975.3
23 20.07 Ю 2 н/о н/о +9.4 +1.8 59 +8 +8 1023.0 975.6
00 21.07 СЗ 3 н/о н/о +13.5 +5.7 59 +13 +13 1022.6 975.2
01 21.07 С 7 н/о н/о +16.8 +8.0 56 +16 +16 1022.0 974.6
02 21.07 С 7 н/о н/о +17.9 +7.6 51 +17 +17 1020.5 973.2 -0.5
03 21.07 С 6 н/о н/о +19.4 +7.5 46 +20 +20 1019.1 971.9
04 21.07 С 5 н/о н/о +20.0 +7.1 43 +21 +21 комфорт 1018.1 970.9
05 21.07 С 5 н/о 5/5 1500 м
[]
+19.6 +7.0 44 +20 +21 1017.8 970.6
06 21.07 З 4 н/о н/о +20.3 +4.8 36 +21 +21 комфорт 1017.6 970.4
07 21.07 З 3 н/о н/о +16.7 +4.7 45 +17 +17 1017.8 970.6
08 21.07 штиль 0 н/о н/о +14.2 +4.8 53 +14 +14 1018.1 970.9
09 21.07 СВ 2 н/о н/о +13.3 +5.0 57 +13 +13 1018.3 971.1
10 21.07 штиль 0 н/о н/о +10.5 +4.0 64 +10 +10 1018.9 971.7
11 21.07 штиль 0 н/о н/о +8.5 +4.1 74 +8 +8 1019.1 971.9
12 21.07 штиль 0 н/о н/о +4.7 +1.2 78 +4 +4 1019.1 971.9
13 21.07 Ю 2 н/о н/о +5.7 +3.9 88 +4 +4 1019.0 971.8
14 21.07 В 4 н/о 5/5 1500 м
[]
+7.0 +5.3 89 +4 +4 1019.1 971.9 +20.6
15 21.07 ЮЗ 1 н/о н/о +4.8 +2.8 87 +3 +3 1019.2 972.0
16 21.07 ЮВ 3 н/о н/о +5.5 +4.3 92 +2 +2 1018.7 971.5
17 21.07 ЮВ 1 н/о 6/0 2000 м
[]
+4.9 +4.3 96 +3 +3 1018.7 971.5
18 21.07 ЮВ 3 н/о н/о +7.0 +5.0 87 +4 +4 1018.4 971.2
19 21.07 ЮВ 3 н/о н/о +7.1 +4.6 84 +4 +4 1018.5 971.3
20 21.07 Ю 2 н/о 10/0
[]
+6.0 +3.8 86 +4 +4 1018.9 971.7
21 21.07 ЮВ 2 н/о н/о +5.5 +4.0 90 +3 +3 1019.5 972.2
22 21.07 Ю 2 н/о н/о +7.6 +5.4 86 +6 +6 1020.3 973.0
23 21.07 ЮВ 3 н/о 10/0
[]
+10.2 +6.0 75 +8 +10 1020.6 973.3
00 22.07 ЮВ 3 н/о н/о +12.3 +6.8 69 +11 +11 1020.8 973.5
01 22.07 ЮВ 3 н/о н/о +14.0 +6.8 62 +13 +13 1020.4 973.1
02 22.07 ЮВ 4 н/о 10/10 1000 м
[]
+14.6 +8.3 66 +13 +13 1019.2 972.0 +2.9
03 22.07 ЮВ 3 н/о н/о +16.9 +8.1 56 +17 +17 1018.2 971.0
04 22.07 ЮВ 5 н/о н/о +16.3 +9.0 62 +15 +15 1017.7 970.5
05 22.07 ЮВ 6 н/о н/о +17.4 +9.6 60 +17 +17 1017.3 970.1
06 22.07 ЮВ 6 н/о н/о +16.7 +8.7 59 +16 +16 1017.3 970.1
07 22.07 ЮВ 3 н/о н/о +14.6 +8.5 67 +14 +14 1017.5 970.3
08 22.07 Ю 4 н/о н/о +11.4 +8.3 81 +9 +9 1018.0 970.8
09 22.07 ЮВ 4 н/о н/о +10.5 +8.3 86 +8 +8 1018.4 971.2
10 22.07 З 2 н/о н/о +7.8 +5.6 86 +6 +6 1019.0 971.8
11 22.07 Ю 2 н/о н/о +8.7 +8.3 97 +7 +7 1019.4 972.1
12 22.07 штиль 0 н/о н/о +7.0 +6.4 96 +6 +6 1019.8 972.5
13 22.07 Ю 2 н/о н/о +6.0 +5.6 97 +4 +4 1019.9 972.6
14 22.07 Ю 2 н/о н/о +6.5 +6.2 98 +4 +4 1019.9 972.6 +18.0
15 22.07 ЮВ 2 н/о н/о +5.8 +5.7 99 +4 +4 1019.8 972.5
16 22.07 Ю 2 н/о н/о +5.6 +5.6 100 +3 +3 1019.7 972.4
17 22.07 ЮВ 2 н/о н/о +5.0 +4.7 98 +2 +2 1019.5 972.2
18 22.07 Ю 2 н/о н/о +4.6 +4.6 100 +2 +2 1019.7 972.4
19 22.07 ЮВ 2 н/о н/о +2.1 +1.5 96 -1 -1 1019.8 972.5
20 22.07 Ю 2 н/о н/о +4.0 +4.0 100 +1 +1 1020.4 973.1
21 22.07 Ю 2 н/о н/о +1.8 +1.7 99 -2 -2 1020.9 973.6
22 22.07 ЮВ 2 н/о н/о +6.3 +6.3 100 +4 +4 1021.7 974.3
23 22.07 ЮВ 3 н/о н/о +9.2 +6.8 85 +7 +7 1022.1 974.7
00 23.07 Ю 2 н/о н/о +13.3 +8.0 70 +13 +13 1022.3 974.9
01 23.07 СЗ 4 н/о н/о +16.4 +6.5 52 +16 +16 1021.9 974.5
02 23.07 СЗ 4 н/о н/о +18.8 +3.8 37 +19 +19 1021.1 973.8 +0.6
03 23.07 СЗ 7 н/о н/о +20.2 +1.1 28 +20 +20 1020.3 973.0
04 23.07 СЗ 7 н/о н/о +20.6 -0.7 24 +20 +20 1019.6 972.3
05 23.07 СЗ 7 н/о н/о +21.2 -0.1 24 +21 +21 комфорт 1019.2 972.0
06 23.07 СЗ 5 н/о н/о +20.4 +0.3 26 +20 +20 1019.1 971.9
07 23.07 СЗ 5 н/о н/о +17.5 -1.2 28 +17 +17 1019.7 972.4
08 23.07 СЗ 4 н/о н/о +14.3 -1.3 34 +13 +13 1020.2 972.9
09 23.07 С 3 н/о н/о +12.1 -1.8 38 +11 +11 1020.4 973.1
10 23.07 СЗ 4 н/о н/о +9.9 -0.9 47 +8 +8 1021.0 973.7
11 23.07 З 3 н/о н/о +9.1 -1.0 49 +7 +7 1021.7 974.3
12 23.07 СЗ 3 н/о н/о +9.7 -1.3 46 +8 +8 1022.0 974.6
13 23.07 С 2 н/о н/о +8.5 -1.0 51 +8 +8 1022.1 974.7
14 23.07 СВ 2 н/о н/о +6.6 -1.8 55 +5 +5 1022.0 974.6 +21.4
15 23.07 штиль 0 н/о н/о +4.8 -1.4 64 +4 +4 1021.8 974.4
16 23.07 СВ 2 н/о н/о +3.0 -1.0 75 +1 +1 1021.4 974.1
17 23.07 штиль 0 н/о н/о +2.9 -0.9 76 +2 +2 1021.6 974.2
18 23.07 В 2 н/о н/о +1.7 -1.0 82 -1 -1 1021.1 973.8
19 23.07 штиль 0 н/о н/о +2.6 -1.0 77 +2 +2 1021.2 973.9
22 23.07 ЮВ 1 н/о н/о +4.8 +1.1 77 +4 +4 1023.0 975.6
23 23.07 штиль 0 н/о н/о +10.0 +1.4 55 +10 +10 1023.3 975.9
00 24.07 СЗ 3 н/о н/о +13.5 +1.5 44 +13 +13 1023.6 976.2
01 24.07 З 3 н/о н/о +16.0 +2.1 39 +16 +16 1023.6 976.2
02 24.07 З 4 н/о н/о +16.9 +1.8 36 +17 +17 1022.7 975.3 -0.3
03 24.07 СЗ 4 н/о н/о +18.2 +2.9 36 +18 +18 1021.7 974.3

 

Местоположение метеостанции Тамворт (Новый Южный Уэльс, Австралия): широта -31.06 долгота 150.83 высота над уровнем моря 396 м.

В архиве по умолчанию представлена погода в Тамворте за последнюю неделю. Архивные данные за месяц целиком и за предыдущие месяцы, начиная с января 2011 года, Вы можете получить, выбрав интересующий диапазон дат из раскрывающегося списка и нажав кнопку "Ввод!".


*Определитесь, кто Вы:
робот инопланетянин человек

Внимание! Время в таблицах - всемирное. Для получения местного времени необходимо прибавить поправку, которая равна 10 ч.

Смотрите также архив погоды в соседних городах и на ближайших метеорологических станциях:

Погода в Ганнеде (Новый Южный Уэльс, Австралия) (57 км)
Погода в Меррерунди (Новый Южный Уэльс, Австралия) (75 км)
Погода в Армидейле (Новый Южный Уэльс, Австралия) (96 км)
Погода в Сконе (Новый Южный Уэльс, Австралия) (108 км)
Погода в Наррабри (Новый Южный Уэльс, Австралия) (127 км)
Погода в Мерриве (Новый Южный Уэльс, Австралия) (139 км)
Погода в Инверелле (Новый Южный Уэльс, Австралия) (144 км)
Погода в Кунабарабране (Новый Южный Уэльс, Австралия) (151 км)
Погода в Глен Иннес (Новый Южный Уэльс, Австралия) (175 км)
Погода в Тари (Новый Южный Уэльс, Австралия) (184 км)

Пояснения к столбцам:

Ветер - указаны скорость ветра в м/с - средняя за 10 мин, порывы в срок и между сроками (в фигурных скобках) и направление, откуда дует ветер: С - северный, СВ - северо-восточный, В - восточный, ЮВ - юго-восточный, Ю - южный, ЮЗ - юго-западный, З - западный, СЗ - северо-западный.
Видимость - горизонтальная дальность видимости в метрах или километрах. При видимости от 1 до 10 км при отсутствии осадков обычно наблюдается дымка, при ухудшении видимости до 1 км и менее - туман. В сухую погоду видимость может ухудшаться дымом, пылью или мглою.
Явления - указаны атмосферные явления, наблюдавшиеся в срок или в последний час перед сроком; фигурными скобками обозначены явления, наблюдавшиеся между сроками (за 1-3 часа до срока); квадратными скобками обозначены град или гололедные отложения с указанием их диаметра в мм.
Облачность - указаны через наклонную черту общая и нижняя облачность в баллах и высота нижней границы облаков в метрах; квадратными скобками обозначены формы облаков: Ci - перистые, Cs - перисто-слоистые, Cc - перисто-кучевые, Ac - высококучевые, As - высокослоистые, Sc - слоисто-кучевые, Ns - слоисто-дождевые, Cu - кучевые, Cb - кучево-дождевые. Подробнее классификацию облаков см. в Атласе облаков (PDF).
T - Температура воздуха - температура, измеренная на высоте 2 м над землей.
Td - Температура точки росы - температура, при понижении до которой содержащийся в воздухе водяной пар достигнет насыщения.
f - Относительная влажность воздуха - влажноcть воздуха, измеренная на высоте 2 м над землей.
Te - Эффективная температура - температура, которую ощущает одетый по сезону человек в тени. Характеристика душности погоды. При расчете учитывается влияние влажности воздуха и скорости ветра на теплоощущения человека.
Tes - Эффективная температура на солнце - температура, которую ощущает человек, с поправкой на солнечный нагрев. Характеристика знойности погоды. Зависит от высоты солнца над горизонтом, облачности и скорости ветра. Ночью, в пасмурную погоду, а также при ветре 12 м/с и более поправка равна нулю.
P - Атмосферное давление - приведенное к уровню моря атмосферное давление.
Po - Атмосферное давление - измеренное на уровне метеостанции атмосферное давление.
Tmin - Минимальная температура - минимум температуры воздуха на высоте 2 м над землей.
Tmax - Максимальная температура - максимум температуры воздуха на высоте 2 м над землей.
R - Количество осадков - Количество выпавших осадков за период времени, мм. При наведении курсора мыши на число - период времени, за который выпало указанное количество осадков.
R24 - Количество осадков - Количество выпавших осадков за 24 часа, мм.
S - Снежный покров - Высота снежного покрова, см. При наведении курсора мыши на число - состояние снежного покрова и степень покрытия местности в баллах.